Location: Lower Kingswood
(51.2667°N, 0.2167°W)
Time: 04:46:12
(UTC+00:00)

Meteor 2-17 Rocket - Visible Passes

Search period start: 16 April 2024 00:00
Search period end: 26 April 2024 00:00
Orbit: 935 x 956 km, 82.5° (Epoch: 15 April)

Date Brightness Start Highest point End Pass type
(mag) Time Alt. Az. Time Alt. Az. Time Alt. Az.
16 Apr 6.7 00:47:30 10° ESE 00:50:51 15° ENE 00:54:11 10° NE visible
16 Apr 4.5 02:31:12 28° S 02:34:38 79° E 02:40:46 10° NNE visible
16 Apr 5.8 04:15:29 10° WSW 04:20:11 22° WNW 04:24:54 10° N visible
17 Apr 6.3 01:03:37 15° ESE 01:06:53 22° E 01:11:27 10° NNE visible
17 Apr 4.4 02:47:38 28° SSW 02:51:04 73° WNW 02:57:12 10° N visible
18 Apr 5.8 01:20:02 21° SE 01:23:01 32° E 01:28:19 10° NNE visible
18 Apr 4.7 03:04:04 24° SW 03:07:34 51° WNW 03:13:32 10° N visible
19 Apr 5.2 01:36:28 29° SE 01:39:13 46° E 01:45:01 10° NNE visible
19 Apr 5.2 03:20:29 19° WSW 03:24:10 36° WNW 03:29:47 10° N visible
20 Apr 6.7 00:09:28 10° E 00:11:54 13° ENE 00:14:21 10° NE visible
20 Apr 4.6 01:52:51 35° SSE 01:55:31 67° E 02:01:35 10° NNE visible
20 Apr 5.6 03:36:54 14° WSW 03:40:53 26° WNW 03:45:55 10° N visible
21 Apr 6.4 00:25:13 14° ESE 00:27:54 19° E 00:31:58 10° NE visible
21 Apr 4.4 02:09:14 36° SSW 02:11:54 86° W 02:18:03 10° N visible
21 Apr 6.0 03:53:29 10° WSW 03:57:40 19° WNW 04:01:52 10° NNW visible
22 Apr 5.9 00:41:34 21° ESE 00:43:59 27° E 00:48:59 10° NNE visible
22 Apr 4.6 02:25:37 32° SW 02:28:23 60° WNW 02:34:26 10° N visible
22 Apr 6.3 04:11:41 10° W 04:14:34 13° NW 04:17:28 10° NNW visible
23 Apr 5.4 00:57:56 29° SE 01:00:10 39° E 01:05:45 10° NNE visible
23 Apr 5.0 02:41:57 26° SW 02:44:56 42° WNW 02:50:43 10° N visible
23 Apr 6.8 23:32:22 10° ENE 23:33:00 10° ENE 23:33:36 10° ENE visible
24 Apr 4.8 01:14:16 38° SSE 01:16:25 57° E 01:22:22 10° NNE visible
24 Apr 5.5 02:58:18 19° WSW 03:01:35 30° WNW 03:06:54 10° N visible
24 Apr 6.4 23:46:34 13° ESE 23:48:56 16° ENE 23:52:23 10° NE visible
25 Apr 4.4 01:30:35 43° S 01:32:46 82° E 01:38:52 10° NNE visible
25 Apr 5.9 03:14:37 13° WSW 03:18:21 22° WNW 03:22:57 10° N visible
